Hourly Data Report for May 12, 2021

WINNIPEG THE FORKS
MANITOBA
Current Station Operator: ECCC - MSC

49°53'18.008" N
97°07'46.007" W
230.00 m
5023262
71579
XWN

Download Data

Hourly Data (May 2021)
Hourly Data Report for May 12, 2021
TIME
LST
Temp Definition
°C
Dew Point Definition
°C
Rel Hum Definition
%
Precip. Amount Definition
mm

Wind Dir Definition
10's deg

Wind Spd Definition
km/h
Visibility Definition
km
Stn Press Definition
kPa
Hmdx Definition


Wind Chill Definition


Weather Definition


00:00 12.5 -8.2 23 0.0 0 1   99.61     LegendNANA
01:00 10.3 -7.9 27 0.0   0   99.61     LegendNANA
02:00 10.2 -6.8 29 0.0 0 1   99.59     LegendNANA
03:00 9.3 -8.3 28 0.0 21 2   99.59     LegendNANA
04:00 7.8 -7.0 34 0.0   0   99.62     LegendNANA
05:00 6.9 -6.4 38 0.0   0   99.63     LegendNANA
06:00 6.6 -6.8 38 0.0   0   99.67     LegendNANA
07:00 9.2 -5.9 34 0.0   0   99.66     LegendNANA
08:00 12.4 -4.6 30 0.0 0 1   99.64     LegendNANA
09:00 15.7 -4.1 25 0.0 19 2   99.61     LegendNANA
10:00 19.4 -4.3 20 0.0 16 3   99.57     LegendNANA
11:00 20.6 -8.9 13 0.0 20 5   99.56     LegendNANA
12:00 21.2 -8.3 13 0.0 20 8   99.51     LegendNANA
13:00 22.4 -7.1 13 0.0 18 4   99.43     LegendNANA
14:00 22.7 -7.3 13 0.0 19 5   99.38     LegendNANA
15:00 23.1 -9.7 10 0.0 23 7   99.34     LegendNANA
16:00 23.1 -9.8 10 0.0 23 8   99.30     LegendNANA
17:00 22.7 -8.0 12 0.0 21 6   99.27     LegendNANA
18:00 22.9 -7.2 13 0.0 22 8   99.25     LegendNANA
19:00 21.7 -6.5 15 0.0 21 3   99.23     LegendNANA
20:00 20.4 -6.8 15 0.0 20 8   99.27     LegendNANA
21:00 18.5 -5.9 19 0.0 20 7   99.31     LegendNANA
22:00 17.1 -6.0 20 0.0 21 6   99.34     LegendNANA
23:00 16.1 -5.9 22 0.0 20 2   99.34     LegendNANA

Notes on Data Quality.

Legend

  • E = Estimated
  • M = Missing
  • NA = Not Available*
  • [empty] = Indicates an unobserved value
Date modified: